Meteo pe oră la Almelo

Astăzi, 20 Ianuarie, Miercuri

Timp Temperatura Precipitaţii Vânt Presiune Umiditate
00:00 +3°C° 0 mm 9 m/s 750 mmHg 84%
01:00 +3°C° 0.1 mm 9 m/s 749 mmHg 83%
02:00 +3°C° 0.1 mm 9 m/s 749 mmHg 82%
03:00 +3°C° 0.1 mm 9 m/s 748 mmHg 81%
04:00 +3°C° 0 mm 9 m/s 748 mmHg 81%
05:00 +3°C° 0 mm 9 m/s 748 mmHg 81%
06:00 +3°C° 0 mm 9 m/s 747 mmHg 81%
07:00 +5°C° 0.1 mm 9 m/s 747 mmHg 79%
08:00 +5°C° 0.1 mm 9 m/s 747 mmHg 76%
09:00 +5°C° 0.1 mm 8 m/s 747 mmHg 74%
10:00 +5°C° 0 mm 9 m/s 747 mmHg 76%
11:00 +5°C° 0 mm 9 m/s 747 mmHg 78%
12:00 +6°C° 0 mm 9 m/s 746 mmHg 80%
13:00 +6°C° 0 mm 8 m/s 746 mmHg 77%
14:00 +6°C° 0 mm 8 m/s 746 mmHg 74%
15:00 +6°C° 0 mm 7 m/s 745 mmHg 71%
16:00 +5°C° 0 mm 7 m/s 745 mmHg 70%
17:00 +5°C° 0 mm 7 m/s 745 mmHg 69%
18:00 +5°C° 0 mm 7 m/s 744 mmHg 68%
19:00 +5°C° 0 mm 7 m/s 744 mmHg 70%
20:00 +6°C° 0 mm 7 m/s 744 mmHg 72%
21:00 +6°C° 0 mm 7 m/s 743 mmHg 75%
22:00 +6°C° 0 mm 8 m/s 742 mmHg 74%
23:00 +6°C° 0 mm 8 m/s 742 mmHg 73%

Mâine, 21 Ianuarie, Joi

Timp Temperatura Precipitaţii Vânt Presiune Umiditate
00:00 +7°C° 0 mm 8 m/s 741 mmHg 73%
01:00 +7°C° 0 mm 10 m/s 740 mmHg 72%
02:00 +7°C° 0 mm 11 m/s 739 mmHg 71%
03:00 +8°C° 0 mm 12 m/s 737 mmHg 70%
04:00 +7°C° 1.1 mm 12 m/s 737 mmHg 72%
05:00 +5°C° 1.1 mm 12 m/s 738 mmHg 74%
06:00 +4°C° 1.1 mm 13 m/s 738 mmHg 77%
07:00 +4°C° 0.1 mm 11 m/s 739 mmHg 74%
08:00 +3°C° 0.1 mm 10 m/s 740 mmHg 71%
09:00 +3°C° 0.1 mm 9 m/s 741 mmHg 68%
10:00 +3°C° 0 mm 9 m/s 741 mmHg 68%
11:00 +5°C° 0 mm 10 m/s 741 mmHg 69%
12:00 +4°C° 0 mm 11 m/s 741 mmHg 69%
13:00 +5°C° 0 mm 10 m/s 741 mmHg 69%
14:00 +5°C° 0 mm 10 m/s 741 mmHg 68%
15:00 +5°C° 0 mm 9 m/s 740 mmHg 68%
16:00 +5°C° 0 mm 9 m/s 740 mmHg 69%
17:00 +5°C° 0 mm 9 m/s 740 mmHg 70%
18:00 +5°C° 0 mm 8 m/s 740 mmHg 71%
19:00 +4°C° 0.6 mm 7 m/s 738 mmHg 78%
20:00 +4°C° 0.6 mm 6 m/s 737 mmHg 85%
21:00 +5°C° 0.6 mm 5 m/s 736 mmHg 91%
22:00 +4°C° 2.1 mm 6 m/s 735 mmHg 91%
23:00 +4°C° 2.1 mm 6 m/s 734 mmHg 91%

Poimâine, 22 Ianuarie, Vineri

Timp Temperatura Precipitaţii Vânt Presiune Umiditate
00:00 +4°C° 2.1 mm 7 m/s 733 mmHg 91%
01:00 +4°C° 0.7 mm 7 m/s 734 mmHg 89%
02:00 +3°C° 0.7 mm 7 m/s 735 mmHg 87%
03:00 +3°C° 0.7 mm 6 m/s 735 mmHg 85%
04:00 +2°C° 0 mm 7 m/s 736 mmHg 84%
05:00 +2°C° 0 mm 7 m/s 738 mmHg 83%
06:00 +2°C° 0 mm 7 m/s 739 mmHg 82%
07:00 +2°C° 0 mm 7 m/s 739 mmHg 81%
08:00 +2°C° 0 mm 7 m/s 739 mmHg 80%
09:00 +1°C° 0 mm 8 m/s 740 mmHg 79%
10:00 +2°C° 0 mm 8 m/s 740 mmHg 76%
11:00 +2°C° 0 mm 8 m/s 740 mmHg 72%
12:00 +4°C° 0 mm 8 m/s 741 mmHg 69%
13:00 +4°C° 0 mm 8 m/s 741 mmHg 69%
14:00 +3°C° 0 mm 7 m/s 741 mmHg 70%
15:00 +3°C° 0 mm 6 m/s 741 mmHg 70%
16:00 +3°C° 0 mm 6 m/s 741 mmHg 73%
17:00 +2°C° 0 mm 6 m/s 742 mmHg 75%
18:00 +2°C° 0 mm 6 m/s 742 mmHg 78%
19:00 +1°C° 0 mm 5 m/s 742 mmHg 81%
20:00 +1°C° 0 mm 5 m/s 742 mmHg 84%
21:00 +1°C° 0 mm 4 m/s 742 mmHg 87%
22:00 0°C° 0 mm 4 m/s 743 mmHg 89%
23:00 0°C° 0 mm 4 m/s 743 mmHg 91%

23 Ianuarie, Sâmbătă

Timp Temperatura Precipitaţii Vânt Presiune Umiditate
00:00 0°C° 0 mm 4 m/s 743 mmHg 94%
01:00 0°C° 0 mm 4 m/s 743 mmHg 94%
02:00 +1°C° 0 mm 3 m/s 743 mmHg 95%
03:00 0°C° 0 mm 3 m/s 742 mmHg 96%
04:00 +1°C° 0.2 mm 3 m/s 742 mmHg 95%
05:00 0°C° 0.2 mm 4 m/s 742 mmHg 95%
06:00 +1°C° 0.2 mm 4 m/s 743 mmHg 94%
07:00 +1°C° 0.3 mm 4 m/s 743 mmHg 94%
08:00 +1°C° 0.3 mm 4 m/s 743 mmHg 94%
09:00 +1°C° 0.3 mm 4 m/s 743 mmHg 94%
10:00 +1°C° 0.1 mm 4 m/s 743 mmHg 93%
11:00 +2°C° 0.1 mm 3 m/s 743 mmHg 91%
12:00 +2°C° 0.1 mm 3 m/s 743 mmHg 89%
13:00 +2°C° 0.1 mm 3 m/s 744 mmHg 88%
14:00 +2°C° 0.1 mm 3 m/s 744 mmHg 86%
15:00 +3°C° 0.1 mm 3 m/s 744 mmHg 84%
16:00 +2°C° 0 mm 3 m/s 745 mmHg 85%
17:00 +1°C° 0 mm 3 m/s 746 mmHg 86%
18:00 0°C° 0 mm 3 m/s 746 mmHg 86%
19:00 0°C° 0 mm 3 m/s 747 mmHg 86%
20:00 0°C° 0 mm 3 m/s 747 mmHg 85%
21:00 -1°C° 0 mm 3 m/s 747 mmHg 85%
22:00 -1°C° 0 mm 3 m/s 747 mmHg 85%
23:00 -1°C° 0 mm 3 m/s 748 mmHg 85%

24 Ianuarie, Duminică

Timp Temperatura Precipitaţii Vânt Presiune Umiditate
00:00 -1°C° 0 mm 3 m/s 748 mmHg 85%
01:00 -1°C° 0 mm 3 m/s 748 mmHg 84%
02:00 -1°C° 0 mm 3 m/s 748 mmHg 84%
03:00 -1°C° 0 mm 3 m/s 748 mmHg 84%
04:00 -1°C° 0 mm 3 m/s 748 mmHg 84%
05:00 -2°C° 0 mm 3 m/s 748 mmHg 83%
06:00 -2°C° 0 mm 3 m/s 748 mmHg 83%
07:00 -1°C° 0 mm 3 m/s 748 mmHg 80%
08:00 -1°C° 0 mm 3 m/s 748 mmHg 77%
09:00 0°C° 0 mm 3 m/s 748 mmHg 75%
10:00 0°C° 0 mm 3 m/s 747 mmHg 70%
11:00 0°C° 0 mm 4 m/s 747 mmHg 64%
12:00 +1°C° 0 mm 4 m/s 747 mmHg 59%
13:00 +2°C° 0 mm 3 m/s 747 mmHg 63%
14:00 +2°C° 0 mm 3 m/s 747 mmHg 66%
15:00 +3°C° 0 mm 2 m/s 746 mmHg 70%
16:00 +2°C° 0 mm 2 m/s 747 mmHg 75%
17:00 +2°C° 0 mm 2 m/s 747 mmHg 80%
18:00 +1°C° 0 mm 2 m/s 747 mmHg 85%
19:00 +1°C° 0 mm 2 m/s 747 mmHg 88%
20:00 +1°C° 0 mm 2 m/s 747 mmHg 92%
21:00 +1°C° 0 mm 1 m/s 748 mmHg 96%
22:00 +1°C° 0 mm 1 m/s 748 mmHg 96%
23:00 +2°C° 0 mm 1 m/s 748 mmHg 96%

25 Ianuarie, Luni

Timp Temperatura Precipitaţii Vânt Presiune Umiditate
00:00 +2°C° 0 mm 1 m/s 748 mmHg 96%
01:00 +1°C° 0 mm 2 m/s 748 mmHg 94%
02:00 +1°C° 0 mm 2 m/s 748 mmHg 93%
03:00 +1°C° 0 mm 2 m/s 749 mmHg 92%
04:00 +1°C° 0 mm 2 m/s 749 mmHg 92%
05:00 -1°C° 0 mm 2 m/s 749 mmHg 92%
06:00 -1°C° 0 mm 2 m/s 749 mmHg 92%
07:00 -1°C° 0 mm 2 m/s 749 mmHg 90%
08:00 +1°C° 0 mm 2 m/s 750 mmHg 89%
09:00 +1°C° 0 mm 2 m/s 750 mmHg 87%
10:00 +1°C° 0 mm 2 m/s 751 mmHg 85%
11:00 +2°C° 0 mm 2 m/s 751 mmHg 82%
12:00 +2°C° 0 mm 2 m/s 751 mmHg 80%
13:00 +2°C° 0 mm 2 m/s 751 mmHg 82%
14:00 +2°C° 0 mm 2 m/s 752 mmHg 84%
15:00 +2°C° 0 mm 2 m/s 752 mmHg 86%
16:00 +2°C° 0 mm 2 m/s 752 mmHg 88%
17:00 +1°C° 0 mm 2 m/s 753 mmHg 90%
18:00 +1°C° 0 mm 2 m/s 753 mmHg 92%
19:00 0°C° 0 mm 3 m/s 753 mmHg 93%
20:00 +1°C° 0 mm 3 m/s 754 mmHg 93%
21:00 +1°C° 0 mm 3 m/s 754 mmHg 94%
22:00 +1°C° 0.1 mm 3 m/s 755 mmHg 93%
23:00 0°C° 0.1 mm 3 m/s 755 mmHg 93%
Arată mai mult

Formular de consimțământ

Meteoprog și furnizorii noștri de servicii pot stoca și accesa date personale, precum cookies, identificatori de dispozitiv sau alte tehnologii similare pe dispozitivul dumneavoastră și procesa astfel de date pentru a personaliza conținutul și reclamele, dar și pentru a oferi caracteristici de social media și pentru a analiza traficul.

  • Stocarea și/sau accesarea informațiilor pe dispozitivul dumneavoastră

    Cookies, identificatori de dispozitiv sau alte informații pot fi stocate sau accesate pe dispozitiv în scopurile indicate mai sus.

  • Reclame și conținut personalizat, evaluarea reclamelor și a conținutului, informații despre audiențe și dezvoltarea produselor

    Reclamele și conținutul pot fi personalizate pe baza unui profil. Pot fi adăugate date suplimentare pentru a personaliza mai bine reclamele și conținutul. Performanța reclamelor și conținutului poate fi măsurată. Pot fi obținute informații despre utilizatorii care au văzut reclamele și conținutul. Aceste date pot fi utilizate pentru a dezvolta sau îmbunătăți experiența utilizatorilor, sistemele și software-ul.

Dând clic pe ‘Sunt de acord’, permiteți utilizarea cookie-urilor menționate, a identificatorilor de dispozitiv, balizelor web sau altor tehnologii similare. Setările pot fi modificate din browser-ul dispozitivului dumneavoastră.

În anumite scopuri, interesele legitime pot prima asupra consimțământului. Puteți citi mai multe informații în acest sens în Politica privind Confidențialitatea Datelor și Cookie.